IAVONS21 Weather Reports


time (UTC)temp
C
wind
direction
speed
KPH
gust
KPH
rain 1hr
cm
rain 24hr
cm
rain mn
cm
humidity
%
barometer
mb
20260509135007 8 244 6.4 11.3 0.00 0.00 0.00 77 1027.7
20260509134517 8 256 4.8 6.4 0.00 0.00 0.00 77 1027.7
20260509134009 8 267 4.8 6.4 0.00 0.00 0.00 77 1027.7
20260509133516 8 258 1.6 6.4 0.00 0.00 0.00 78 1027.7
20260509133020 8 258 3.2 6.4 0.00 0.00 0.00 78 1027.7
20260509132512 8 251 3.2 4.8 0.00 0.00 0.00 78 1027.7
20260509132011 8 254 3.2 6.4 0.00 0.00 0.00 78 1027.7
20260509131522 8 258 3.2 6.4 0.00 0.00 0.00 77 1027.8
20260509131008 8 255 0.0 4.8 0.00 0.00 0.00 77 1027.7
20260509130504 8 250 0.0 6.4 0.00 0.00 0.00 77 1027.8
20260509130008 8 254 3.2 6.4 0.00 0.00 0.00 77 1027.8
20260509125509 8 246 1.6 8.0 0.00 0.00 0.00 78 1027.8
20260509125006 8 258 4.8 8.0 0.00 0.00 0.00 78 1027.9
20260509124511 8 247 3.2 9.7 0.00 0.00 0.00 78 1027.9
20260509124004 8 251 4.8 9.7 0.00 0.00 0.00 79 1028.0
20260509123508 8 268 3.2 6.4 0.00 0.00 0.00 79 1028.0
20260509123016 8 261 3.2 6.4 0.00 0.00 0.00 78 1028.0
20260509122512 8 267 3.2 6.4 0.00 0.00 0.00 79 1028.1
20260509122007 8 261 3.2 6.4 0.00 0.00 0.00 79 1028.1
20260509121529 8 249 3.2 8.0 0.00 0.00 0.00 79 1028.1
20260509121011 7 242 4.8 8.0 0.00 0.00 0.00 79 1028.0
20260509120508 7 249 3.2 8.0 0.00 0.00 0.00 79 1028.1
20260509120030 7 256 4.8 9.7 0.00 0.00 0.00 80 1028.1
20260509115515 7 264 4.8 9.7 0.00 0.00 0.00 81 1028.1
20260509115003 7 259 0.0 6.4 0.00 0.00 0.00 81 1028.1
20260509114527 7 267 3.2 6.4 0.00 0.00 0.00 81 1028.0
20260509114011 7 260 3.2 6.4 0.00 0.00 0.00 81 1028.0
20260509113506 7 260 3.2 6.4 0.00 0.00 0.00 81 1028.0
20260509113012 7 258 0.0 4.8 0.00 0.00 0.00 80 1027.9
20260509112508 7 254 0.0 6.4 0.00 0.00 0.00 80 1027.9
20260509112010 8 258 3.2 6.4 0.00 0.00 0.00 80 1027.8
20260509111516 8 249 3.2 6.4 0.00 0.00 0.00 80 1027.8
20260509111009 8 245 3.2 6.4 0.00 0.00 0.00 80 1027.7
20260509110509 8 250 3.2 6.4 0.00 0.00 0.00 80 1027.6
20260509110027 7 246 1.6 6.4 0.00 0.00 0.00 81 1027.6
20260509105508 8 252 1.6 4.8 0.00 0.00 0.00 80 1027.6
20260509105008 8 251 1.6 4.8 0.00 0.00 0.00 80 1027.6
20260509104524 8 250 0.0 0.0 0.00 0.00 0.00 79 1027.5
20260509104010 8 244 0.0 8.0 0.00 0.00 0.00 79 1027.5
20260509103511 8 244 0.0 8.0 0.00 0.00 0.00 79 1027.4
20260509103009 8 266 3.2 8.0 0.00 0.00 0.00 78 1027.3
20260509102505 8 252 3.2 8.0 0.00 0.00 0.00 78 1027.3
20260509102007 8 242 3.2 11.3 0.00 0.00 0.00 78 1027.3
20260509101516 8 263 4.8 11.3 0.00 0.00 0.00 78 1027.3
20260509101008 8 241 6.4 11.3 0.00 0.00 0.00 78 1027.3
20260509100509 8 241 4.8 12.9 0.00 0.00 0.00 78 1027.2
20260509100029 8 260 6.4 12.9 0.00 0.00 0.00 78 1027.3
20260509095508 8 256 4.8 11.3 0.00 0.00 0.00 77 1027.2
20260509095014 8 243 3.2 8.0 0.00 0.00 0.00 77 1027.2
20260509094528 8 248 3.2 8.0 0.00 0.00 0.00 76 1027.2
20260509094008 8 243 1.6 4.8 0.00 0.00 0.00 76 1027.2
20260509093508 9 238 0.0 11.3 0.00 0.00 0.00 76 1027.3
20260509093026 9 239 4.8 11.3 0.00 0.00 0.00 76 1027.3
20260509092516 9 246 3.2 11.3 0.00 0.00 0.00 76 1027.3
20260509092010 8 233 3.2 9.7 0.00 0.00 0.00 76 1027.3
20260509091528 8 232 3.2 8.0 0.00 0.00 0.00 76 1027.3
20260509091007 8 261 4.8 8.0 0.00 0.00 0.00 76 1027.2
20260509090509 9 239 3.2 12.9 0.00 0.00 0.00 76 1027.1
20260509090020 8 237 6.4 12.9 0.00 0.00 0.00 76 1027.0
20260509085507 9 257 6.4 12.9 0.00 0.00 0.00 76 1027.0
20260509085008 8 246 6.4 12.9 0.00 0.00 0.00 76 1027.0
20260509084527 9 249 6.4 12.9 0.00 0.00 0.00 76 1026.9
20260509084013 9 231 4.8 11.3 0.00 0.00 0.00 75 1026.9
20260509083509 9 266 4.8 11.3 0.00 0.00 0.00 74 1026.9
20260509083033 9 236 4.8 9.7 0.00 0.00 0.00 74 1026.9
20260509082511 9 253 4.8 8.0 0.00 0.00 0.00 74 1026.8
20260509082010 9 248 3.2 8.0 0.00 0.00 0.00 74 1026.7
20260509081530 9 254 0.0 12.9 0.00 0.00 0.00 74 1026.7
20260509081009 9 250 4.8 12.9 0.00 0.00 0.00 75 1026.7
20260509080511 9 262 4.8 9.7 0.00 0.00 0.00 76 1026.7
20260509080022 9 251 4.8 8.0 0.00 0.00 0.00 76 1026.7
20260509075507 9 250 3.2 6.4 0.00 0.00 0.00 76 1026.6
20260509075007 10 237 3.2 6.4 0.00 0.00 0.00 75 1026.6
20260509074516 10 237 4.8 8.0 0.00 0.00 0.00 75 1026.4
20260509074003 10 245 3.2 8.0 0.00 0.00 0.00 75 1026.3
20260509073503 10 243 3.2 8.0 0.00 0.00 0.00 75 1026.3
20260509073005 10 254 1.6 8.0 0.00 0.00 0.00 74 1026.3
20260509072502 10 241 1.6 6.4 0.00 0.00 0.00 73 1026.2
20260509072003 10 242 1.6 6.4 0.00 0.00 0.00 72 1026.2
20260509071506 11 243 1.6 6.4 0.00 0.00 0.00 72 1026.1
20260509071003 11 241 3.2 6.4 0.00 0.00 0.00 71 1025.9
20260509070506 11 239 3.2 6.4 0.00 0.00 0.00 71 1025.8
20260509070013 11 242 3.2 6.4 0.00 0.00 0.00 70 1025.8
20260509065507 11 241 3.2 6.4 0.00 0.00 0.00 69 1025.8
20260509065007 12 215 0.0 3.2 0.00 0.00 0.00 69 1025.8
20260509064522 11 204 0.0 3.2 0.00 0.00 0.00 69 1025.7
20260509064009 11 172 0.0 3.2 0.00 0.00 0.00 70 1025.8
20260509063510 11 157 0.0 6.4 0.00 0.00 0.00 69 1025.7
20260509063021 11 147 0.0 6.4 0.00 0.00 0.00 69 1025.7
20260509062503 12 121 1.6 6.4 0.00 0.00 0.00 69 1025.8
20260509062003 11 157 1.6 8.0 0.00 0.00 0.00 68 1025.8
20260509061502 12 146 1.6 8.0 0.00 0.00 0.00 68 1025.7
20260509061003 12 151 3.2 8.0 0.00 0.00 0.00 68 1025.6
20260509060503 12 156 3.2 12.9 0.00 0.00 0.00 68 1025.6
20260509060010 12 200 3.2 14.5 0.00 0.00 0.00 67 1025.6
20260509055507 12 147 4.8 16.1 0.00 0.00 0.00 67 1025.6
20260509055008 12 135 6.4 16.1 0.00 0.00 0.00 66 1025.5
20260509054512 12 170 3.2 9.7 0.00 0.00 0.00 67 1025.5
20260509054008 12 162 3.2 9.7 0.00 0.00 0.00 67 1025.5
20260509053507 12 158 3.2 12.9 0.00 0.00 0.00 66 1025.6
20260509053022 12 142 3.2 12.9 0.00 0.00 0.00 67 1025.5
20260509052509 12 127 3.2 16.1 0.00 0.00 0.00 66 1025.5
20260509052012 12 142 3.2 16.1 0.00 0.00 0.00 66 1025.5
20260509051523 12 145 4.8 14.5 0.00 0.00 0.00 66 1025.3
20260509051003 12 154 3.2 9.7 0.00 0.00 0.00 66 1025.4
20260509050503 12 158 4.8 12.9 0.00 0.00 0.00 65 1025.3
20260509050009 12 141 6.4 12.9 0.00 0.00 0.00 63 1025.3
20260509045503 12 108 3.2 14.5 0.00 0.00 0.00 64 1025.3
20260509045003 12 139 1.6 14.5 0.00 0.00 0.00 65 1025.4
20260509044510 13 134 3.2 12.9 0.00 0.00 0.00 63 1025.5
20260509044007 13 150 3.2 12.9 0.00 0.00 0.00 63 1025.4
20260509043505 13 136 6.4 14.5 0.00 0.00 0.00 63 1025.5
20260509043032 13 143 4.8 12.9 0.00 0.00 0.00 63 1025.5
20260509042510 13 151 3.2 9.7 0.00 0.00 0.00 63 1025.3
20260509042007 13 107 4.8 9.7 0.00 0.00 0.00 64 1025.3
20260509041520 13 131 1.6 6.4 0.00 0.00 0.00 64 1025.2
20260509041009 13 110 1.6 6.4 0.00 0.00 0.00 63 1025.3
20260509040507 13 112 1.6 6.4 0.00 0.00 0.00 64 1025.2
20260509040024 13 147 1.6 6.4 0.00 0.00 0.00 66 1025.1
20260509035510 13 121 1.6 6.4 0.00 0.00 0.00 64 1025.1
20260509035004 13 209 3.2 6.4 0.00 0.00 0.00 61 1025.1
20260509034510 13 169 3.2 9.7 0.00 0.00 0.00 62 1025.2
20260509034004 13 142 3.2 9.7 0.00 0.00 0.00 65 1025.2
20260509033509 13 247 0.0 9.7 0.00 0.00 0.00 64 1025.1
20260509033010 12 155 1.6 9.7 0.00 0.00 0.00 66 1025.3
20260509032511 12 263 3.2 6.4 0.00 0.00 0.00 63 1025.2
20260509032016 12 164 0.0 8.0 0.00 0.00 0.00 66 1025.0
20260509031522 12 250 1.6 8.0 0.00 0.00 0.00 65 1025.1
20260509031011 12 230 1.6 11.3 0.00 0.00 0.00 66 1025.1
20260509030511 12 248 3.2 11.3 0.00 0.00 0.00 65 1025.1
20260509030034 12 244 4.8 11.3 0.00 0.00 0.00 68 1025.1
20260509025507 12 220 4.8 11.3 0.00 0.00 0.00 65 1025.1
20260509025014 12 170 1.6 11.3 0.00 0.00 0.00 67 1025.2
20260509024526 11 256 8.0 11.3 0.00 0.00 0.00 66 1025.2
20260509024009 11 258 4.8 11.3 0.00 0.00 0.00 67 1025.2
20260509023503 11 215 4.8 11.3 0.00 0.00 0.00 68 1025.2
20260509023037 11 206 3.2 12.9 0.00 0.00 0.00 70 1025.3
20260509022507 11 222 3.2 12.9 0.00 0.00 0.00 71 1025.3
20260509022009 11 235 4.8 16.1 0.00 0.00 0.00 70 1025.5
20260509021516 11 249 6.4 16.1 0.00 0.00 0.00 71 1025.6
20260509021009 10 225 6.4 14.5 0.00 0.00 0.00 70 1025.6
20260509020512 10 236 6.4 11.3 0.00 0.00 0.00 72 1025.6
20260509020019 10 256 4.8 11.3 0.00 0.00 0.00 72 1025.7
20260509015510 10 243 4.8 11.3 0.00 0.00 0.00 72 1025.8
20260509015012 10 249 4.8 8.0 0.00 0.00 0.00 72 1025.8
20260509014528 10 244 0.0 6.4 0.00 0.00 0.00 73 1025.8
20260509014011 10 196 1.6 8.0 0.00 0.00 0.00 73 1025.9
20260509013509 10 241 1.6 8.0 0.00 0.00 0.00 73 1025.8
20260509013026 10 147 1.6 8.0 0.00 0.00 0.00 72 1025.8
20260509012510 10 165 3.2 8.0 0.00 0.00 0.00 72 1025.8
20260509012013 10 172 3.2 6.4 0.00 0.00 0.00 73 1025.8
20260509011531 10 180 1.6 4.8 0.00 0.00 0.00 75 1025.9
20260509011012 9 192 0.0 8.0 0.00 0.00 0.00 74 1026.0
20260509010515 9 172 3.2 8.0 0.00 0.00 0.00 75 1025.9
20260509010029 9 250 3.2 8.0 0.00 0.00 0.00 75 1025.8
20260509005511 8 129 1.6 6.4 0.00 0.00 0.00 76 1025.9
20260509005012 8 225 0.0 9.7 0.00 0.00 0.00 75 1025.9
20260509004533 8 156 1.6 8.0 0.00 0.00 0.00 76 1026.0
20260509004011 8 287 0.0 4.8 0.00 0.00 0.00 78 1026.0
20260509003511 8 269 0.0 4.8 0.00 0.00 0.00 79 1026.0
20260509003026 7 337 0.0 4.8 0.00 0.00 0.00 81 1025.9
20260509002516 7 31 0.0 4.8 0.00 0.00 0.00 82 1025.9
20260509002012 7 354 0.0 4.8 0.00 0.00 0.00 82 1025.8
20260509001528 7 251 0.0 6.4 0.00 0.00 0.00 82 1025.9
20260509001010 6 250 3.2 6.4 0.00 0.00 0.00 81 1025.8
20260509000509 6 266 1.6 6.4 0.00 0.00 0.00 83 1025.9
20260509000031 6 236 0.0 8.0 0.00 0.00 0.00 84 1025.8
20260508235508 6 287 3.2 8.0 0.00 0.00 0.00 84 1025.8
20260508235012 6 225 0.0 6.4 0.00 0.00 0.00 85 1025.9
20260508234521 6 172 1.6 6.4 0.00 0.00 0.00 86 1025.8
20260508234013 5 210 0.0 6.4 0.00 0.00 0.00 86 1025.8
20260508233510 5 249 3.2 11.3 0.00 0.00 0.00 86 1025.7
20260508233024 5 237 3.2 11.3 0.00 0.00 0.00 86 1025.7
20260508232511 5 260 3.2 8.0 0.00 0.00 0.00 88 1025.7
20260508232010 5 254 3.2 8.0 0.00 0.00 0.00 87 1025.7
20260508231530 5 282 1.6 8.0 0.00 0.00 0.00 87 1025.8
20260508231009 5 242 3.2 6.4 0.00 0.00 0.00 88 1025.7
20260508230513 5 268 1.6 0.0 0.00 0.00 0.00 88 1025.7
20260508230028 -17 0.0 0.0 0.00 0.00 0.00 1025.5
20260508225511 -17 0.0 0.0 0.00 0.00 0.00 1025.5
20260508225011 -17 0.0 0.0 0.00 0.00 0.00 1025.5
20260508224534 4 0.0 0.0 0.00 0.00 0.00 89 1025.3
20260508224012 4 253 4.8 0.0 0.00 0.00 0.00 89 1025.3
20260508223509 -17 0.0 0.0 0.00 0.00 0.00 1025.1
20260508223036 -17 0.0 0.0 0.00 0.00 0.00 1025.2
20260508222513 -17 0.0 0.0 0.00 0.00 0.00 1024.9
20260508222011 -17 0.0 0.0 0.00 0.00 0.00 1024.9
20260508221534 -17 0.0 0.0 0.00 0.00 0.00 1025.1
20260508221011 -17 0.0 0.0 0.00 0.00 0.00 1025.0
20260508220511 -17 0.0 0.0 0.00 0.00 0.00 1025.0
20260508220031 -17 0.0 0.0 0.00 0.00 0.00 1025.0
20260508215512 -17 0.0 0.0 0.00 0.00 0.00 91 1024.9
20260508215012 3 3.2 6.4 0.00 0.00 0.00 91 1024.7
20260508214531 3 276 1.6 6.4 0.00 0.00 0.00 91 1024.8
20260508214013 3 277 3.2 11.3 0.00 0.00 0.00 91 1024.9
20260508213510 3 268 1.6 12.9 0.00 0.00 0.00 91 1024.8
20260508213010 3 233 6.4 12.9 0.00 0.00 0.00 91 1024.8
20260508212513 3 251 1.6 11.3 0.00 0.00 0.00 91 1024.8
20260508212005 3 244 4.8 11.3 0.00 0.00 0.00 91 1024.7
20260508211506 3 276 3.2 9.7 0.00 0.00 0.00 91 1024.6
20260508211004 3 243 4.8 9.7 0.00 0.00 0.00 91 1024.4
20260508210510 3 245 4.8 9.7 0.00 0.00 0.00 91 1024.4
20260508210028 3 218 6.4 12.9 0.00 0.00 0.00 91 1024.4
20260508205505 3 253 4.8 12.9 0.00 0.00 0.00 91 1024.2
20260508205013 3 241 6.4 12.9 0.00 0.00 0.00 91 1024.3
20260508204532 3 240 3.2 12.9 0.00 0.00 0.00 91 1024.2
20260508204010 3 235 1.6 19.3 0.00 0.00 0.00 91 1024.1
20260508203511 3 239 9.7 16.1 0.00 0.00 0.00 91 1024.1
20260508203031 3 253 8.0 16.1 0.00 0.00 0.00 91 1024.0
20260508202508 3 262 1.6 11.3 0.00 0.00 0.00 91 1023.9
20260508202003 3 240 4.8 12.9 0.00 0.00 0.00 91 1023.9
20260508201503 3 228 3.2 14.5 0.00 0.00 0.00 91 1023.8
20260508201003 3 226 1.6 14.5 0.00 0.00 0.00 91 1023.8
20260508200509 3 216 8.0 14.5 0.00 0.00 0.00 91 1023.7
20260508200018 3 248 4.8 9.7 0.00 0.00 0.00 91 1023.7
20260508195510 3 237 3.2 11.3 0.00 0.00 0.00 91 1023.6
20260508195003 3 245 3.2 11.3 0.00 0.00 0.00 90 1023.5
20260508194511 3 215 3.2 14.5 0.00 0.00 0.00 90 1023.3
20260508194006 3 244 4.8 14.5 0.00 0.00 0.00 90 1023.2
20260508193511 3 248 4.8 19.3 0.00 0.00 0.00 90 1023.2
20260508193017 3 251 6.4 19.3 0.00 0.00 0.00 90 1023.1
20260508192508 3 241 4.8 12.9 0.00 0.00 0.00 91 1023.0
20260508192012 3 231 6.4 14.5 0.00 0.00 0.00 91 1023.0
20260508191531 3 240 6.4 14.5 0.00 0.00 0.00 91 1022.9
20260508191007 3 250 8.0 14.5 0.00 0.00 0.00 91 1022.9
20260508190512 3 259 4.8 11.3 0.00 0.00 0.00 90 1023.0
20260508190031 3 230 6.4 8.0 0.00 0.00 0.00 90 1023.0
20260508185509 3 239 1.6 6.4 0.00 0.00 0.00 90 1023.0
20260508185003 3 231 1.6 6.4 0.00 0.00 0.00 90 1023.0
20260508184507 3 254 0.0 4.8 0.00 0.00 0.00 89 1023.0
20260508184011 3 228 0.0 6.4 0.00 0.00 0.00 89 1023.0
20260508183506 3 172 0.0 6.4 0.00 0.00 0.00 89 1022.9
20260508183008 3 233 1.6 6.4 0.00 0.00 0.00 89 1022.7
20260508182513 3 206 1.6 9.7 0.00 0.00 0.00 89 1022.7
20260508182005 3 230 1.6 11.3 0.00 0.00 0.00 89 1022.6
20260508181542 3 214 1.6 11.3 0.00 0.00 0.00 89 1022.6
20260508181013 3 247 4.8 8.0 0.00 0.00 0.00 89 1022.5
20260508180510 4 210 3.2 11.3 0.00 0.00 0.00 89 1022.5
20260508180025 4 240 3.2 11.3 0.00 0.00 0.00 89 1022.5
20260508175510 4 251 1.6 8.0 0.00 0.00 0.00 88 1022.5
20260508175012 4 243 1.6 9.7 0.00 0.00 0.00 88 1022.5
20260508174507 4 263 3.2 9.7 0.00 0.00 0.00 89 1022.5
20260508174004 4 251 3.2 9.7 0.00 0.00 0.00 89 1022.5
20260508173503 4 241 4.8 14.5 0.00 0.00 0.00 89 1022.4
20260508173036 4 245 4.8 14.5 0.00 0.00 0.00 89 1022.5
20260508172509 4 260 9.7 14.5 0.00 0.00 0.00 89 1022.5
20260508172010 4 239 6.4 14.5 0.00 0.00 0.00 89 1022.6
20260508171534 4 245 4.8 14.5 0.00 0.00 0.00 89 1022.6
20260508171013 4 243 4.8 8.0 0.00 0.00 0.00 89 1022.6
20260508170507 4 248 4.8 8.0 0.00 0.00 0.00 89 1022.6
20260508170030 4 245 3.2 6.4 0.00 0.00 0.00 89 1022.7
20260508165513 4 268 3.2 6.4 0.00 0.00 0.00 89 1022.7
20260508165013 4 217 3.2 8.0 0.00 0.00 0.00 89 1022.7
20260508164526 4 259 3.2 8.0 0.00 0.00 0.00 89 1022.7
20260508164011 4 241 4.8 8.0 0.00 0.00 0.00 88 1022.7
20260508163513 4 206 1.6 6.4 0.00 0.00 0.00 88 1022.7
20260508163033 4 240 1.6 12.9 0.00 0.00 0.00 88 1022.6
20260508162510 4 237 3.2 12.9 0.00 0.00 0.00 88 1022.6
20260508162009 4 264 3.2 6.4 0.00 0.00 0.00 88 1022.6
20260508161531 5 244 3.2 6.4 0.00 0.00 0.00 88 1022.6
20260508161008 5 241 0.0 9.7 0.00 0.00 0.00 88 1022.7
20260508160506 5 233 1.6 9.7 0.00 0.00 0.00 88 1022.7
20260508160030 5 257 1.6 6.4 0.00 0.00 0.00 88 1022.7
20260508155509 5 241 0.0 6.4 0.00 0.00 0.00 88 1022.7
20260508155010 5 243 0.0 8.0 0.00 0.00 0.00 88 1022.7
20260508154520 5 241 3.2 8.0 0.00 0.00 0.00 88 1022.7
20260508154011 5 230 1.6 9.7 0.00 0.00 0.00 87 1022.7
20260508153511 5 243 3.2 9.7 0.00 0.00 0.00 87 1022.7
20260508153041 5 235 3.2 9.7 0.00 0.00 0.00 87 1022.7
20260508152514 5 185 3.2 9.7 0.00 0.00 0.00 87 1022.7
20260508152009 5 231 4.8 9.7 0.00 0.00 0.00 87 1022.7
20260508151527 5 238 3.2 8.0 0.00 0.00 0.00 87 1022.7
20260508151007 5 237 3.2 6.4 0.00 0.00 0.00 87 1022.7
20260508150511 5 246 1.6 6.4 0.00 0.00 0.00 87 1022.8
20260508150028 5 240 3.2 8.0 0.00 0.00 0.00 87 1022.8
20260508145507 5 245 3.2 11.3 0.00 0.00 0.00 87 1022.8
20260508145007 5 235 4.8 11.3 0.00 0.00 0.00 87 1022.7
20260508144519 5 256 4.8 12.9 0.00 0.00 0.00 87 1022.7
20260508144008 5 258 1.6 14.5 0.00 0.00 0.00 87 1022.6
20260508143508 5 260 8.0 14.5 0.00 0.00 0.00 86 1022.6
20260508143023 5 252 4.8 17.7 0.00 0.00 0.00 87 1022.5
20260508142511 5 249 6.4 17.7 0.00 0.00 0.00 86 1022.5
20260508142011 5 256 4.8 14.5 0.00 0.00 0.00 86 1022.6
20260508141530 5 243 4.8 14.5 0.00 0.00 0.00 86 1022.7
20260508141012 5 231 4.8 9.7 0.00 0.00 0.00 86 1022.6
20260508140510 5 236 3.2 8.0 0.00 0.00 0.00 86 1022.6
20260508140029 5 241 3.2 6.4 0.00 0.00 0.00 86 1022.6
20260508135514 5 244 3.2 9.7 0.00 0.00 0.00 86 1022.6